User: anonymous   Login
Location: Unspecified
(0.0000°N, 0.0000°E)
Time: 05:18:04
(UTC+00:00)
Language:

Nova 1 - Orbit

View from above orbital plane
View from above orbital plane
View from above satellite
View from above satellite

Ground track
Ground track

The orbit data is extracted from the following two-line orbital elements,

1 12458U 81044A   18233.05805580  .00000041  00000-0  77901-4 0  9998
2 12458  89.9410 119.3133 0012685 268.2725 182.6630 13.22986180798985
Epoch (UTC): 21 August 2018 01:23:36
Eccentricity: 0.0012685
inclination: 89.9410°
perigee height: 1164 km
apogee height: 1183 km
right ascension of ascending node: 119.3133°
argument of perigee: 268.2725°
revolutions per day: 13.22986180
mean anomaly at epoch: 182.6630°
orbit number at epoch: 79898

The dashed part of the orbit path shows where the satellite is in the earth's shadow,  

DLR